Weather History for KMRY - November, 2012

Change the Weather History Date:

Friday, November 23, 2012

  Actual Average Record
Temperature  
Mean Temperature 55 °F 54 °F  
Max Temperature 69 °F 63 °F 70 °F (2007)
Min Temperature 41 °F 45 °F 33 °F (2003)
Degree Days  
Heating Degree Days 10    
Month to date heating degree days 191  
Since 1 July heating degree days 866  
Cooling Degree Days 0    
Month to date cooling degree days 10  
Year to date cooling degree days 36  
Growing Degree Days 4 (Base 50)    
Moisture  
Dew Point 45 °F    
Average Humidity 71    
Maximum Humidity 93    
Minimum Humidity 48    
Precipitation  
Precipitation 0.00 in - 0.27 in (2010)
Month to date precipitation 1.30  
Year to date precipitation 9.63  
Since 1 July precipitation 1.98  
Sea Level Pressure  
Sea Level Pressure 30.21 in    
Wind  
Wind Speed 3 mph (ESE)    
Max Wind Speed 9 mph    
Max Gust Speed 12 mph    
Visibility 10 miles    
Events      
T = Trace of Precipitation, MM = Missing Value Source: NWS Daily Summary

Daily Weather History Graph

Daily Weather History Graph

Search for Another Location

Airport or City:

Trip Planner

Search our weather history database for the weather conditions in past years. The results will help you decide how hot, cold, wet, or windy it might be!

Date:

Astronomy

Nov. 23, 2012 Rise Set
Actual Time 6:53 AM PST 4:53 PM PST
Civil Twilight 6:25 AM PST 5:21 PM PST
Nautical Twilight 5:54 AM PST 5:53 PM PST
Astronomical Twilight 5:23 AM PST 6:24 PM PST
Moon 2:05 PM PST (11/23) 2:24 AM PST (11/23)
Length of Visible Light 10h 56m
Length of Day
10h 00m
Waxing Gibbous, 80% of the Moon is Illuminated
Nov 23
Waxing Gibbous
Nov 28
Full
Dec 6
Last Quarter
Dec 13
New
Dec 19
First Quarter

Hourly Weather History & Observations

Time (PST) Temp. Windchill Dew Point Humidity Pressure Visibility Wind Dir Wind Speed Gust Speed Precip Events Conditions
12:54 AM 48.9 °F - 44.1 °F 83% 30.23 in 10.0 mi East 5.8 mph - N/A   Clear
1:54 AM 45.0 °F 43.5 °F 42.1 °F 90% 30.23 in 10.0 mi East 3.5 mph - N/A   Clear
2:54 AM 44.1 °F - 41.0 °F 89% 30.23 in 10.0 mi Calm Calm - N/A   Clear
3:54 AM 43.0 °F 41.3 °F 39.9 °F 89% 30.22 in 10.0 mi SE 3.5 mph - N/A   Clear
4:54 AM 43.0 °F 41.3 °F 39.9 °F 89% 30.23 in 10.0 mi ESE 3.5 mph - N/A   Clear
5:54 AM 41.0 °F 38.0 °F 39.0 °F 93% 30.23 in 10.0 mi East 4.6 mph - N/A   Clear
6:54 AM 44.1 °F - 41.0 °F 89% 30.24 in 10.0 mi Calm Calm - N/A   Clear
7:54 AM 46.0 °F - 42.1 °F 86% 30.25 in 10.0 mi Calm Calm - N/A   Clear
8:54 AM 50.0 °F - 44.1 °F 80% 30.26 in 10.0 mi Calm Calm - N/A   Clear
9:54 AM 54.0 °F - 46.9 °F 77% 30.25 in 10.0 mi Calm Calm - N/A   Clear
10:54 AM 61.0 °F - 48.0 °F 62% 30.23 in 10.0 mi Calm Calm - N/A   Clear
11:54 AM 64.9 °F - 50.0 °F 58% 30.21 in 10.0 mi West 3.5 mph - N/A   Clear
12:54 PM 68.0 °F - 50.0 °F 52% 30.19 in 10.0 mi WSW 6.9 mph - N/A   Clear
1:54 PM 64.0 °F - 50.0 °F 60% 30.18 in 10.0 mi Variable 4.6 mph - N/A   Clear
2:54 PM 64.0 °F - 48.0 °F 56% 30.17 in 10.0 mi WSW 3.5 mph - N/A   Clear
3:54 PM 66.0 °F - 46.0 °F 48% 30.17 in 10.0 mi Calm Calm - N/A   Clear
4:54 PM 60.1 °F - 50.0 °F 69% 30.17 in 10.0 mi Calm Calm - N/A   Clear
5:54 PM 55.9 °F - 46.9 °F 72% 30.18 in 10.0 mi ESE 3.5 mph - N/A   Clear
6:54 PM 54.0 °F - 46.0 °F 75% 30.19 in 10.0 mi East 3.5 mph - N/A   Clear
7:54 PM 53.1 °F - 46.0 °F 77% 30.19 in 10.0 mi East 3.5 mph - N/A   Clear
8:54 PM 53.1 °F - 45.0 °F 74% 30.20 in 10.0 mi ESE 4.6 mph - N/A   Clear
9:54 PM 51.1 °F - 45.0 °F 80% 30.20 in 10.0 mi ESE 4.6 mph - N/A   Clear
10:54 PM 50.0 °F - 44.1 °F 80% 30.20 in 10.0 mi East 3.5 mph - N/A   Clear
11:54 PM 48.9 °F - 44.1 °F 83% 30.20 in 10.0 mi ESE 3.5 mph - N/A   Clear